Regional Weather Roundup
Issued by NWS

Home | Current Version | Previous Version | Text Only | Print | Product List | Glossary Off
Versions: 1 2 3 4 5 6 7 8 9 10 11 12 13 14 15 16 17 18 19 20 21 22 23 24 25 26 27 28 29 30 31 32 33 34 35 36 37 38 39 40 41 42 43 44 45 46 47 48 49 50

938
ASUS44 KLIX 200101
RWRLA
LOUISIANA WEATHER ROUNDUP
NATIONAL WEATHER SERVICE NEW ORLEANS LA
800 PM CDT FRI SEP 19 2014

NOTE: "FAIR" INDICATES FEW OR NO CLOUDS BELOW 12,000 FEET WITH NO
      SIGNIFICANT WEATHER AND/OR OBSTRUCTIONS TO VISIBILITY.
      SKY/WX - SKY CONDITION AND SIGNIFICANT WEATHER.
      TMP - AIR TEMPERATURE.    DP   - DEWPOINT TEMPERATURE.
      RH  - RELATIVE HUMIDITY.  PRES - PRESSURE.
      HX  - HEAT INDEX.         WCI  - WIND CHILL INDEX.

*  THESE STATIONS ARE NOT NWS OR FAA STATIONS AND ARE NOT UNDER
   NWS QUALITY CONTROL.

LAZ040-048-061>063-065-066-069-200200-
SOUTHEAST LOUISIANA

CITY           SKY/WX    TMP DP  RH WIND       PRES   REMARKS
N.O. AUDUBON     N/A     81  69  67 MISG        N/A
N.O. INTL ARPT PTCLDY    80  67  64 E7        29.94R
N.O. LAKEFRONT CLEAR     81  70  69 E12       29.94S
N.O. DOWNTOWN* FAIR      81  64  57 E6        29.94F
SLIDELL        CLEAR     76  71  85 CALM      29.94S
BATON ROUGE    PTCLDY    76  72  87 NE3       29.95R
BOOTHVILLE     PTCLDY    81  71  71 E13       29.92F
BELLE CHASSE   MOCLDY    78  69  73 E6        29.93S
BOGALUSA*        N/A     75  71  86 CALM      29.97R
GALLIANO*      NOT AVBL
NEW ROADS*     MOCLDY    79  71  75 E3        29.95R
GONZALES*      FAIR      76  76  97 CALM      29.94R
HAMMOND*       NOT AVBL
HOUMA*         PTCLDY    75  61  62 NE6       29.93S
PORT FOURCHON* CLOUDY    81  70  69 E14       29.94S

$$

LAZ041-044-053-054-200200-
SOUTHWEST LOUISIANA

CITY           SKY/WX    TMP DP  RH WIND       PRES   REMARKS
LAKE CHARLES   PTCLDY    80  71  74 E5        29.91R
LAFAYETTE      CLEAR     78  71  79 CALM      29.93R
PATTERSON      CLEAR     75  72  88 CALM      29.96R
SALT POINT       N/A     80  72  76 CALM      29.92S
NEW IBERIA     CLEAR     79  70  74 E7        29.94R
CHENAULT AIRPK PTCLDY    79  72  78 E3        29.92R

$$

LAZ027-028-200200-
CENTRAL LOUISIANA

CITY           SKY/WX    TMP DP  RH WIND       PRES   REMARKS
FORT POLK      CLEAR     78  70  76 E3        29.93R
ALEXANDRIA INT CLEAR     77  71  82 E5        29.92R
ALEXANDRIA     CLEAR     76  72  87 CALM      29.94R

$$

LAZ001-002-200200-
NORTHWEST LOUISIANA

CITY           SKY/WX    TMP DP  RH WIND       PRES   REMARKS
SHREVEPORT     PTCLDY    81  68  64 E7        29.93R
BARKSDALE AFB  CLEAR     79  68  69 E5        29.94R
DTN SHREVEPORT CLEAR     80  68  66 E5        29.93R

$$

LAZ014-016-200200-
NORTHEAST LOUISIANA

CITY           SKY/WX    TMP DP  RH WIND       PRES   REMARKS
MONROE         CLEAR     76  70  82 CALM      29.95R
TALLULAH       PTCLDY    75  70  84 CALM      29.95R

$$




USA.gov is the U.S. government's official web portal to all federal, state and local government web resources and services.